Regional Weather Roundup
Issued by NWS Midland/Odessa, TX

Home | Current Version | Previous Version | Text Only | Print | Product List | Glossary On
Versions: 1 2 3 4 5 6 7 8 9 10 11 12 13 14 15 16 17 18 19 20 21 22 23 24 25 26 27 28 29 30 31 32 33 34 35 36 37 38 39 40 41 42 43 44 45 46 47 48 49 50
000
ASUS44 KMAF 210001
RWRMAF
MIDLAND AREA WEATHER ROUNDUP
NATIONAL WEATHER SERVICE MIDLAND TX
600 PM CST SAT DEC 20 2014

...IN SOUTHWEST TEXAS AND SOUTHEAST NEW MEXICO...

CITY           SKY/WX    TMP DP  RH WIND       PRES   REMARKS
ALPINE         CLEAR     57  28  32 W10       30.11R
ANDREWS        FAIR      53  26  34 W7        30.03S
ARTESIA        CLEAR     50  30  46 SE7       30.01S
BIG SPRING     CLEAR     54  45  73 SE8       30.07S
CARLSBAD       CLEAR     55  27  34 CALM      29.99R
DRYDEN           N/A     52  46  80 SE8       30.06R
FORT STOCKTON  CLEAR     55  33  43 NE7       30.03R
GUAD PASS      NOT AVBL
HOBBS          CLEAR     52  23  32 SW7       30.02S
MARFA          CLEAR     52  27  37 W9        30.08F
MIDLAND AIRPK  CLEAR     55  43  63 S6        30.03S
MIDLAND INTL   CLEAR     55  27  34 SW5       30.03R
ODESSA         CLEAR     55  26  32 SW6       30.03S
PECOS          CLEAR     60  30  31 CALM      30.00S
PRESIDIO       FAIR      64  32  30 CALM      30.02S
SEMINOLE       CLEAR     51  29  42 CALM      30.04S
SNYDER         CLOUDY    50  42  75 S3        30.08R
WINK           CLEAR     55  26  32 S5        30.00S
$$
...OTHER STATIONS IN TEXAS...

CITY           SKY/WX    TMP DP  RH WIND       PRES   REMARKS
ABILENE        CLOUDY    50  41  71 SE8       30.11R
AMARILLO       MOCLDY    43  35  73 S9        30.01R WCI  38
AUSTIN         CLOUDY    52  46  80 NE7       30.16R
BROWNSVILLE    CLOUDY    58  53  84 N12       30.10F
CORPUS CHRISTI CLOUDY    56  50  80 E6        30.15R
DALLAS FTW     CLOUDY    47  42  83 NE5       30.17F
DEL RIO        CLOUDY    56  47  71 SE14      30.09R
EL PASO        PTCLDY    55  24  30 CALM      30.05S
HOUSTON INT    CLOUDY    52  48  86 CALM      30.16S
LUBBOCK        MOCLDY    43  36  76 S7        30.04R WCI  39
SAN ANGELO     MOCLDY    53  45  74 SE3       30.08S
SAN ANTONIO    CLOUDY    54  44  69 E10       30.14S
WACO           CLOUDY    49  44  83 NE6       30.17S
WICHITA FALLS  NOT AVBL
$$
...OTHER LOCATIONS IN NEW MEXICO...

CITY           SKY/WX    TMP DP  RH WIND       PRES   REMARKS
ALAMAGORDO     PTCLDY    48  23  37 NW9       30.06F
ALBUQUERQUE    PTCLDY    42  27  55 SE5       30.08F WCI  39
CANNON AFB     PTCLDY    46  19  34 W6        29.99S
CLOVIS         MOCLDY    45  19  36 W5        29.99S
HOLLOMAN AFB   PTCLDY    50  26  40 CALM      30.05F
ROSWELL        PTCLDY    49  26  41 SE6       30.00S
RUIDOSO        CLEAR     37  16  41 NW6       30.08R WCI  33
SANTA FE       CLEAR     35  24  64 W5        30.05F WCI  31
TRUTH OR CONSE CLEAR     50  20  30 S5        30.05F
TUCUMCARI      MOCLDY    47  24  40 E6        29.97R
$$


USA.gov is the U.S. government's official web portal to all federal, state and local government web resources and services.